Regional Weather Roundup
Issued by NWS Newport/Morehead, NC

Current Version | Previous Version | Graphics & Text | Print | Product List | Glossary On
Versions: 1 2 3 4 5 6 7 8 9 10 11 12 13 14 15 16 17 18 19 20 21 22 23 24 25 26 27 28 29 30 31 32 33 34 35 36 37 38 39 40 41 42 43 44 45 46 47 48 49 50
000
ASUS42 KMHX 031725
RWRMHX
WEATHER ROUNDUP FOR EASTERN NORTH CAROLINA
NATIONAL WEATHER SERVICE NEWPORT/MOREHEAD CITY NC
100 PM EDT SUN MAY 03 2015

NOTE: "FAIR" INDICATES FEW OR NO CLOUDS BELOW 12,000 FEET
WITH NO SIGNIFICANT WEATHER AND/OR OBSTRUCTIONS TO VISIBILITY

NCZ015>017-031-032-045>047-102-103-031800-
NORTH COAST

CITY           SKY/WX    TMP DP  RH WIND       PRES   REMARKS
EDENTON        SUNNY     77  52  41 SW7       30.17F
ELIZABETH CITY SUNNY     77  48  35 VRB7      30.16F
KITTY HAWK     SUNNY     71  53  52 W6        30.17S
MANTEO         SUNNY     74  50  42 NW9       30.18S

$$

NCZ045>047-081-094-103-104-031800-
CENTRAL COAST

CITY           SKY/WX    TMP DP  RH WIND       PRES   REMARKS
FRISCO         SUNNY     66  55  67 W8        30.19S
SWANQUARTER      N/A     75 N/A N/A SW7G14    30.15S

$$

NCZ095-097-098-100-101-031800-
SOUTHERN COAST

CITY           SKY/WX    TMP DP  RH WIND       PRES   REMARKS
BEAUFORT       SUNNY     73  51  46 SW13      30.20S
CEDAR ISLAND     N/A     73 N/A N/A N5        30.24S
JACKSONVILLE   SUNNY     77  41  27 E8        30.19F
PINEY ISLAND   SUNNY    N/A N/A N/A N8        30.19S
WILMINGTON     SUNNY     77  38  24 S12       30.20S


$$

NCZ011>013-027>030-043-044-078>080-089-090>093-098-031800-
COASTAL PLAIN

CITY           SKY/WX    TMP DP  RH WIND       PRES   REMARKS
AHOSKIE        MOSUNNY   76  42  30 CALM      30.17F
CLINTON        MOSUNNY   76  48  37 CALM      30.20F
ELIZABETHTOWN  SUNNY     77  42  28 CALM      30.19F
GOLDSBORO      SUNNY     76  48  37 VRB5      30.17F
GREENVILLE     SUNNY     75  45  33 CALM      30.20F
HAVELOCK       SUNNY     78  44  29 VRB3      30.20S
KENANSVILLE    SUNNY     76  37  24 E3        30.20F
KINSTON        SUNNY     75  43  31 NW3       30.20F
NEW BERN       SUNNY     79  42  26 CALM      30.20S
RICHLANDS      SUNNY     79  41  25 S3        30.19F
ROCKY MOUNT    SUNNY     77  50  38 W7        30.19S
WASHINGTON     SUNNY     74  45  35 NW6       30.18F
WHITEVILLE     SUNNY     76  42  29 NE3       30.19F

$$

AMZ130-135-150-152-154-156-158-170-250-252-270-ANZ085-086-088-633-658-670-031800-
MARINE OBSERVATIONS

STATION/POSITION TIME  TEMP    WIND        PRES    WAVE   SWELL
                       AIR SEA DIR/SP/G            HT/PER HT/PER
                 (UTC) (F)     (DEG/KT/KT) (MB)    (FT/S) (FT/S)
CHESAPEAKE LIGHT 1700   70     280/  9/ 10 1021.6
64 E VA BEACH    1650   58 62  230/  4/  6 1021.0    6/11   5/11
DUCK             1700   70 53  250/  8/ 10 1020.4
2 E DUCK         1611      58                N/A     5/11   3/11
OREGON INLET     1700   73 57  310/  8/ 11 1021.6
13E OREGON INLT  1700      55                N/A     6/11   3/11
HATTERAS CG      1700          270/  9/ 10   N/A
DIAMOND BUOY     1650   61 61  290/  4/  6 1022.5    5/11   5/11
CAPE LOOKOUT     1700   71     240/  7/  9 1022.4
BEAUFORT LAB     1700          210/  9/ 12   N/A
27 SE WRIGHTSVLE 1700   67 72  360/  2/  2   N/A
5 SE WRIGHTSVLE  1608   69 67  130/  4/  4 1023.2
225 S CAPE HAT   1650   68 70   30/ 16/ 19 1022.3    9/11   7/11
41 SE CHARLESTON 1650   69 74  320/  4/  6 1022.9    3/11   3/11

$$


USA.gov is the U.S. government's official web portal to all federal, state and local government web resources and services.